Location: Navajo
(48.7922°N, 105.0603°W)
Time: 04:48:59
(UTC+00:00)

CUBEBUG 2 - Pass Details

Date: 01 July 2022
Orbit: 584 x 693 km, 97.7° (Epoch: 07 August)

Event Time Altitude Azimuth Distance (km) Brightness Sun altitude
Rises 08:44:49 0° 31° (NNE) 2,833 ? -14.7°
Reaches altitude 10° 08:48:05 10° 59° (ENE) 1,939 ? -14.5°
Maximum altitude 08:50:07 13° 89° (E) 1,740 ? -14.3°
Drops below altitude 10° 08:52:10 10° 118° (ESE) 1,954 ? -14.2°
Enters shadow 08:55:18 - 145° (SE) 2,823 ? -13.9°
